Flag Weather past 2 weeks in Fort Bragg, California, U.S.A.

Now
59 °F

Scattered clouds.


Feels Like: 59 °F
Forecast: 48 / 58 °F
Wind: No wind

Location: Ukiah Municipal

Current Time: Nov 23, 2014 at 2:29:40 PM

Latest Report: Nov 23, 2014 at 1:56 PM


Visibility: 10 mi

Pressure: 30.28 "Hg

Humidity: 48%

Dew point: 39 °F

Location of Fort BraggLocation

Historic Weather in Fort Bragg — Graph

°F

Fort Bragg temperature yesterday

Maximum temperature yesterday: 63 °F (at 10:56 AM)
Minimum temperature yesterday: 44 °F (at 10:56 PM)
Average temperature yesterday: 56 °F

Past Weeks' High & Low Weather Summary

 TemperatureHumidityPressure
High81 °F (Nov 8, 2:56 PM)97% (Nov 14, 12:01 AM)30.37 "Hg (Nov 14, 12:01 AM)
Low34 °F (Nov 17, 5:56 AM)27% (Nov 18, 3:56 PM)29.75 "Hg (Nov 10, 4:56 PM)
Average53 °F78%30.05 "Hg
* Reported Nov 8 12:56 PM — Nov 23 12:56 PM, Fort Bragg, Weather by CustomWeather, © 2014

Note: Actual official high and low records may vary slightly from our data, if they occured in-between our weather recording intervals... More about our weather records

Advertising

Fort Bragg weather history for previous 24 hours

 ConditionsComfort  
Time TempWeatherWind HumidityBarometerVisibility
12:56 PM
Nov 23
57 °FSunny.3 mph51%30.30 "Hg10 mi
11:56 AM53 °FSunny.3 mph66%30.34 "Hg10 mi
10:56 AM50 °FSunny.No wind77%30.37 "Hg10 mi
9:56 AM47 °FSunny.No wind86%30.37 "Hg10 mi
8:56 AM44 °FSunny.No wind89%30.37 "Hg10 mi
7:56 AM41 °FSunny.No wind93%30.36 "Hg10 mi
6:56 AM42 °FClear.3 mph89%30.35 "Hg10 mi
5:56 AM40 °FClear.No wind93%30.34 "Hg10 mi
4:56 AM41 °FClear.No wind93%30.33 "Hg10 mi
3:56 AM43 °FClear.5 mph89%30.33 "Hg10 mi
2:56 AM41 °FClear.No wind93%30.32 "Hg8 mi
1:56 AM42 °FClear.No wind89%30.30 "Hg10 mi
12:59 AM40 °FFog.3 mph93%30.30 "Hg1 mi
11:56 PM
Nov 22
44 °FClear.3 mph89%30.29 "Hg9 mi
10:56 PM44 °FClear.No wind89%30.29 "Hg9 mi
9:56 PM47 °FClear.No wind90%30.28 "Hg10 mi
8:56 PM48 °FClear.3 mph89%30.26 "Hg10 mi
7:56 PM50 °FClear.3 mph86%30.23 "Hg9 mi
6:56 PM54 °FClear.3 mph77%30.21 "Hg10 mi
5:56 PM55 °FClear.6 mph72%30.19 "Hg10 mi
4:56 PM57 °FClear.7 mph64%30.16 "Hg10 mi
3:56 PM59 °FSunny.12 mph58%30.15 "Hg10 mi
2:56 PM61 °FSunny.10 mph52%30.13 "Hg10 mi
Weather by CustomWeather, © 2014

See weather overviewHow to use our weather pages